Flag for Equatorial Guinea Weather past 2 weeks in Malabo, Equatorial Guinea

Now
79 °F

Thunderstorms. Broken clouds.


Feels Like: 82 °F
Forecast: 73 / 79 °F
Wind: 12 mph from Southwest

Location: Malabo/Fernando Poo

Current Time: Jul 22, 2014 at 3:04:22 PM

Latest Report: Jul 22, 2014 at 2:00 PM


Visibility: 5 mi

Pressure: 29.98 "Hg

Humidity: 79%

Dew point: 72 °F

Location of MalaboLocation

Historic Weather in Malabo — Graph

°F

Malabo temperature yesterday

Maximum temperature yesterday: 82 °F (at 12:00 PM)
Minimum temperature yesterday: 75 °F (at 1:00 AM)
Average temperature yesterday: 78 °F

Past Weeks' High & Low Weather Summary

 TemperatureHumidityPressure
High86 °F (Jul 10, 12:00 PM)100% (Jul 9, 3:00 AM)30.07 "Hg (Jul 9, 3:00 AM)
Low70 °F (Jul 10, 6:00 AM)59% (Jul 12, 12:00 PM)29.92 "Hg (Jul 12, 4:00 PM)
Average77 °F85%29.99 "Hg
* Reported Jul 7 2:00 PM — Jul 22 2:00 PM, Malabo, Weather by CustomWeather, © 2014

Note: Actual official high and low records may vary slightly from our data, if they occured in-between our weather recording intervals... More about our weather records

Advertising

Malabo weather history for previous 24 hours

 ConditionsComfort  
Time TempWeatherWind HumidityBarometerVisibility
2:00 PM
Jul 22
79 °FThunderstorms. Broken clouds.12 mph79%29.98 "Hg5 mi
1:00 PM77 °FThunderstorms. Mostly cloudy.6 mph89%30.01 "Hg4 mi
12:00 PM77 °FBroken clouds.6 mph89%30.01 "HgN/A
11:00 AM79 °FBroken clouds.8 mph84%30.04 "Hg5 mi
10:00 AM77 °FBroken clouds.9 mph89%30.04 "Hg5 mi
9:00 AM79 °FBroken clouds.6 mph84%30.04 "Hg4 mi
8:00 AM77 °FBroken clouds.3 mph89%30.01 "Hg4 mi
7:00 AM75 °FBroken clouds.3 mph94%30.01 "Hg5 mi
6:00 AM75 °FPartly cloudy.1 mph94%29.98 "HgN/A
5:00 AM75 °FPartly cloudy.5 mph94%29.98 "HgN/A
4:00 AM75 °FPartly cloudy.No wind94%29.98 "HgN/A
3:00 AM73 °FPartly cloudy.No wind94%29.98 "HgN/A
2:00 AM75 °FPartly cloudy.N/A94%30.01 "HgN/A
1:00 AM75 °FPartly cloudy.3 mph94%30.01 "HgN/A
12:00 AM75 °FPartly cloudy.2 mph94%30.01 "HgN/A
11:00 PM
Jul 21
75 °FPartly cloudy.2 mph94%30.04 "HgN/A
10:00 PM77 °FPassing clouds.3 mph89%30.04 "HgN/A
9:00 PM77 °FPassing clouds.No wind89%30.01 "Hg5 mi
8:00 PM77 °FPassing clouds.2 mph89%29.98 "Hg5 mi
7:00 PM77 °FPartly cloudy.2 mph89%29.98 "Hg5 mi
6:00 PM79 °FBroken clouds.9 mph79%29.95 "Hg5 mi
5:30 PM79 °FBroken clouds.12 mph79%29.95 "Hg5 mi
4:00 PM79 °FDrizzle. Broken clouds.8 mph84%29.95 "Hg5 mi
3:00 PM79 °FDrizzle. Broken clouds.5 mph84%29.98 "Hg5 mi
Weather by CustomWeather, © 2014

See weather overviewHow to use our weather pages